QPF
0.00 0.01 0.01 0.00 0.00 0.00 0.00 0.00 0.00 0.00 0.00 0.00 0.00 0.00 0.00 0.00 0.00 0.00 0.00 0.00 0.00 0.00 0.00 0.00 0.00 0.00 0.00 0.00 0.00 0.00 0.00 0.00 0.00
0.00 0.00 0.00 0.00 0.00 0.00 0.00 0.00 0.00 0.00 0.00 0.00 0.00 0.00 0.00 0.00 0.00 0.00 0.00 0.00 0.00 0.00 0.00 0.00 0.00 0.00 0.00 0.00 0.00 0.00 0.00 0.00 0.00
0.00 0.00 0.00 0.00 0.00 0.00 0.00 0.00 0.00 0.00 0.00 0.00 0.00 0.00 0.00 0.00 0.00 0.00 0.00 0.00 0.00 0.00 0.00 0.00 0.00 0.00 0.00 0.00 0.00 0.00 0.00 0.00 0.00
0.00 0.00 0.00 0.00 0.00 0.00 0.00 0.00 0.00 0.00 0.00 0.00 0.00 0.00 0.00 0.00 0.00 0.00 0.00 0.00 0.00 0.00 0.00 0.00 0.00 0.00 0.00 0.00 0.00 0.00 0.00 0.00 0.00
0.01 0.00 0.00 0.00 0.00 0.00 0.00 0.00 0.00 0.00 0.00 0.00 0.00 0.00 0.00 0.00 0.00 0.00 0.00 0.00 0.00 0.00 0.00 0.00 0.00 0.00 0.00 0.00 0.00 0.00 0.00 0.00 0.00
0.01 0.00 0.00 0.00 0.00 0.00 0.00 0.00 0.00 0.00 0.00 0.00 0.00 0.00 0.00 0.00 0.00 0.00 0.00 0.00 0.00 0.00 0.00 0.00 0.00 0.00 0.00 0.00 0.00 0.00 0.00 0.00 0.00
0.01 0.01 0.00 0.00 0.00 0.00 0.00 0.00 0.00 0.00 0.00 0.00 0.00 0.00 0.00 0.00 0.00 0.00 0.00 0.00 0.00 0.00 0.00 0.00 0.00 0.00 0.00 0.00 0.00 0.00 0.00 0.00 0.00
0.01 0.01 0.00 0.00 0.00 0.00 0.00 0.00 0.00 0.00 0.00 0.00 0.00 0.00 0.00 0.00 0.00 0.00 0.00 0.00 0.00 0.00 0.00 0.00 0.00 0.00 0.00 0.00 0.00 0.00 0.00 0.00 0.00
0.00 0.00 0.00 0.00 0.00 0.00 0.00 0.00 0.00 0.00 0.00 0.00 0.00 0.00 0.00 0.00 0.00 0.00 0.00 0.00 0.00 0.00 0.00 0.00 0.00 0.00 0.00 0.00 0.00 0.00 0.00 0.00 0.00
0.00 0.00 0.00 0.00 0.00 0.00 0.00 0.00 0.00 0.00 0.00 0.00 0.00 0.00 0.00 0.00 0.00 0.00 0.00 0.00 0.00 0.00 0.00 0.00 0.00 0.00 0.00 0.00 0.00 0.00 0.00 0.00 0.00
0.00 0.00 0.00 0.00 0.00 0.00 0.00 0.00 0.00 0.00 0.00 0.00 0.00 0.00 0.00 0.00 0.00 0.00 0.00 0.00 0.00 0.00 0.00 0.00 0.00 0.00 0.00 0.00 0.00 0.00 0.00 0.00 0.00
0.00 0.00 0.00 0.00 0.00 0.00 0.00 0.00 0.00 0.00 0.00 0.00 0.00 0.00 0.00 0.00 0.00 0.00 0.00 0.00 0.00 0.00 0.00 0.01 0.00 0.00 0.00 0.00 0.00 0.00 0.00 0.00 0.00
0.00 0.00 0.00 0.00 0.00 0.00 0.00 0.00 0.00 0.00 0.00 0.00 0.00 0.00 0.00 0.00 0.00 0.00 0.00 0.00 0.00 0.00 0.00 0.00 0.01 0.02 0.00 0.02 0.00 0.00 0.00 0.00 0.00
0.00 0.00 0.00 0.00 0.00 0.00 0.00 0.00 0.00 0.00 0.00 0.00 0.00 0.00 0.00 0.00 0.00 0.00 0.00 0.00 0.00 0.00 0.00 0.00 0.00 0.01 0.01 0.02 0.02 0.02 0.01 0.02 0.01
0.00 0.00 0.00 0.00 0.00 0.00 0.00 0.00 0.00 0.00 0.00 0.00 0.00 0.00 0.00 0.00 0.00 0.00 0.00 0.00 0.00 0.00 0.00 0.00 0.00 0.00 0.00 0.01 0.05 0.02 0.00 0.02 0.04
0.00 0.00 0.00 0.00 0.00 0.00 0.00 0.00 0.00 0.00 0.00 0.00 0.00 0.00 0.00 0.00 0.00 0.00 0.00 0.00 0.00 0.00 0.00 0.01 0.01 0.00 0.00 0.00 0.01 0.00 0.00 0.00 0.00
0.00 0.00 0.00 0.00 0.00 0.00 0.00 0.00 0.00 0.00 0.00 0.00 0.00 0.00 0.00 0.00 0.00 0.00 0.00 0.00 0.00 0.00 0.00 0.01 0.00 0.01 0.02 0.01 0.01 0.00 0.00 0.00 0.00
0.00 0.00 0.00 0.00 0.00 0.00 0.00 0.00 0.00 0.00 0.00 0.00 0.00 0.00 0.01 0.01 0.00 0.00 0.00 0.00 0.00 0.00 0.00 0.00 0.00 0.00 0.00 0.00 0.01 0.01 0.00 0.00 0.00
0.00 0.00 0.00 0.00 0.00 0.00 0.00 0.00 0.01 0.05 0.03 0.00 0.00 0.00 0.01 0.02 0.01 0.00 0.00 0.00 0.00 0.00 0.00 0.00 0.00 0.00 0.00 0.00 0.00 0.00 0.00 0.00 0.00
0.00 0.00 0.00 0.00 0.00 0.01 0.01 0.01 0.01 0.01 0.00 0.00 0.00 0.00 0.00 0.01 0.00 0.00 0.00 0.00 0.00 0.00 0.00 0.00 0.00 0.00 0.00 0.00 0.00 0.00 0.00 0.00 0.00
MSLP
1016.12 1016.57 1016.98 1017.27 1017.57 1017.85 1018.19 1018.47 1018.59 1018.70 1018.94 1019.02 1019.06 1019.00 1018.80 1018.53 1018.65 1018.97 1019.37 1019.60 1019.84 1019.96 1020.03 1020.01 1020.03 1020.02 1020.03 1020.00 1020.06 1020.05 1019.98 1020.02 1019.94
1016.37 1016.91 1017.31 1017.63 1017.97 1018.26 1018.53 1018.92 1018.99 1019.02 1019.25 1019.37 1019.46 1019.31 1019.00 1018.67 1018.94 1019.31 1019.73 1020.09 1020.23 1020.36 1020.49 1020.55 1020.58 1020.50 1020.45 1020.44 1020.44 1020.40 1020.41 1020.39 1020.32
1016.59 1017.12 1017.61 1018.02 1018.30 1018.57 1018.90 1019.21 1019.31 1019.34 1019.52 1019.74 1019.71 1019.55 1019.36 1019.05 1019.46 1019.90 1020.33 1020.59 1020.64 1020.74 1020.86 1020.95 1021.01 1020.97 1020.99 1020.97 1020.91 1020.88 1020.92 1020.77 1020.75
1016.78 1017.37 1017.90 1018.33 1018.63 1018.91 1019.22 1019.46 1019.63 1019.71 1019.88 1020.01 1020.06 1019.87 1019.49 1019.32 1019.55 1019.95 1020.59 1020.91 1020.97 1021.12 1021.24 1021.33 1021.40 1021.42 1021.45 1021.38 1021.36 1021.37 1021.33 1021.31 1021.23
1017.06 1017.61 1018.16 1018.57 1018.90 1019.23 1019.50 1019.71 1019.87 1020.17 1020.31 1020.39 1020.25 1019.98 1019.86 1019.69 1019.99 1020.56 1021.14 1021.23 1021.29 1021.44 1021.56 1021.65 1021.75 1021.79 1021.80 1021.80 1021.81 1021.82 1021.83 1021.74 1021.68
1017.47 1017.65 1018.43 1018.77 1019.23 1019.51 1019.85 1020.10 1020.23 1020.57 1020.73 1020.66 1020.42 1020.22 1019.57 1019.69 1020.12 1020.94 1021.41 1021.41 1021.49 1021.57 1021.71 1021.79 1021.85 1021.97 1022.10 1022.14 1022.20 1022.22 1022.22 1022.23 1022.18
1017.18 1018.06 1018.70 1019.00 1019.52 1019.87 1020.17 1020.40 1020.49 1020.40 1020.48 1020.65 1020.50 1019.74 1019.66 1019.86 1020.27 1021.21 1021.55 1021.59 1021.70 1021.86 1021.97 1022.06 1022.18 1022.26 1022.32 1022.41 1022.46 1022.51 1022.55 1022.58 1022.57
1017.49 1018.24 1018.75 1019.23 1019.69 1019.86 1020.26 1020.51 1020.08 1019.55 1019.56 1020.00 1019.61 1019.57 1019.76 1020.01 1020.43 1021.51 1021.70 1021.75 1021.94 1022.10 1022.26 1022.29 1022.36 1022.42 1022.56 1022.61 1022.68 1022.74 1022.79 1022.84 1022.85
1017.41 1018.02 1018.44 1018.80 1019.10 1019.45 1019.74 1019.74 1019.51 1019.53 1019.56 1019.66 1019.71 1019.76 1019.91 1019.94 1020.32 1021.48 1021.81 1021.89 1021.99 1022.13 1022.27 1022.42 1022.51 1022.59 1022.66 1022.77 1022.83 1022.94 1023.00 1022.97 1023.00
1017.22 1017.95 1018.41 1018.36 1018.37 1018.86 1019.11 1019.16 1019.54 1019.57 1019.53 1019.64 1019.85 1020.05 1020.05 1020.22 1020.40 1021.01 1021.70 1021.88 1021.93 1022.05 1022.21 1022.34 1022.44 1022.51 1022.61 1022.79 1022.94 1022.98 1023.17 1023.26 1023.31
1016.92 1017.88 1018.03 1018.10 1018.23 1018.72 1019.10 1019.24 1019.47 1019.63 1019.57 1019.68 1019.94 1020.16 1020.29 1020.31 1020.42 1020.52 1021.39 1021.74 1021.86 1021.94 1021.99 1022.18 1022.34 1022.46 1022.61 1022.64 1022.86 1022.97 1023.05 1023.20 1023.29
1016.37 1016.90 1017.17 1017.84 1018.41 1018.79 1019.07 1019.31 1019.45 1019.55 1019.63 1019.73 1019.79 1019.96 1020.01 1020.31 1020.41 1020.47 1020.57 1021.36 1021.79 1021.85 1021.85 1021.89 1022.12 1022.25 1022.41 1022.53 1022.68 1022.74 1022.84 1023.01 1023.12
1016.32 1016.88 1017.37 1018.03 1018.45 1018.86 1019.20 1019.44 1019.59 1019.73 1019.95 1019.86 1019.97 1020.05 1020.10 1020.07 1020.15 1020.40 1020.47 1020.63 1020.89 1021.60 1021.78 1021.86 1021.94 1022.10 1022.25 1022.30 1022.39 1022.45 1022.56 1022.70 1022.81
1016.45 1016.93 1017.40 1018.00 1018.51 1018.84 1019.18 1019.50 1019.60 1019.85 1020.08 1020.10 1020.01 1020.04 1020.12 1020.13 1020.11 1020.25 1020.44 1020.64 1020.90 1020.83 1021.30 1021.70 1021.83 1021.95 1022.03 1022.07 1022.21 1022.25 1022.33 1022.56 1022.68
1016.21 1016.83 1017.40 1018.00 1018.44 1018.89 1019.30 1019.59 1019.70 1019.77 1019.89 1020.04 1020.06 1020.03 1020.01 1020.04 1020.11 1020.12 1020.32 1020.47 1020.79 1020.99 1020.96 1021.41 1021.52 1021.80 1021.89 1022.00 1022.07 1022.18 1022.19 1022.10 1022.40
1016.01 1016.50 1017.13 1017.77 1018.25 1018.69 1019.16 1019.43 1019.70 1019.97 1020.09 1020.07 1019.96 1019.90 1019.94 1020.11 1020.22 1020.33 1020.43 1020.46 1020.76 1020.89 1021.01 1021.02 1021.12 1021.88 1022.05 1022.08 1022.22 1022.26 1022.29 1022.48 1022.48
1015.59 1016.22 1016.84 1017.39 1017.99 1018.55 1019.04 1019.29 1019.57 1019.73 1019.95 1019.96 1019.85 1019.75 1020.09 1020.25 1020.48 1020.82 1021.06 1021.17 1021.46 1021.46 1021.60 1021.92 1021.69 1021.94 1022.61 1022.80 1022.78 1022.87 1022.73 1022.58 1022.52
1015.34 1016.02 1016.59 1017.29 1017.83 1018.42 1018.91 1019.34 1019.56 1019.63 1019.93 1020.29 1020.33 1020.18 1020.13 1020.23 1020.70 1021.11 1021.46 1021.86 1021.82 1021.97 1021.94 1022.05 1022.23 1022.35 1022.59 1022.54 1022.71 1022.83 1023.03 1023.09 1022.90
1015.43 1016.04 1016.59 1017.21 1017.85 1018.52 1018.96 1019.30 1019.52 1019.95 1020.29 1020.71 1020.77 1020.83 1020.87 1020.85 1020.76 1021.09 1021.45 1021.68 1021.77 1021.93 1022.07 1022.14 1022.02 1022.17 1022.42 1022.72 1022.84 1022.75 1022.81 1022.94 1022.81
1015.56 1016.30 1016.85 1017.58 1018.01 1018.57 1019.10 1019.62 1020.16 1020.52 1020.75 1020.59 1020.60 1020.95 1021.13 1021.14 1021.33 1021.21 1021.67 1021.81 1021.94 1022.03 1022.25 1022.33 1022.39 1022.48 1022.72 1022.57 1022.44 1022.58 1022.37 1022.51 1022.49
Thickness
5734 5731 5729 5727 5724 5723 5720 5718 5718 5718 5716 5716 5717 5718 5720 5721 5720 5717 5714 5712 5710 5708 5706 5705 5703 5701 5699 5697 5695 5692 5691 5688 5686
5730 5727 5724 5722 5720 5718 5716 5713 5715 5716 5714 5713 5713 5715 5717 5719 5717 5713 5710 5707 5706 5704 5702 5700 5698 5697 5695 5693 5690 5688 5686 5684 5682
5727 5723 5719 5717 5716 5715 5712 5710 5711 5712 5712 5710 5710 5713 5714 5715 5712 5708 5705 5703 5702 5700 5698 5696 5693 5692 5690 5688 5686 5684 5681 5680 5678
5724 5719 5715 5712 5711 5711 5708 5707 5707 5707 5708 5708 5707 5708 5711 5712 5710 5707 5702 5699 5697 5695 5693 5691 5689 5687 5685 5683 5681 5679 5677 5674 5672
5719 5716 5711 5708 5707 5706 5704 5704 5704 5702 5702 5703 5705 5706 5707 5707 5705 5700 5696 5695 5693 5691 5688 5686 5685 5682 5680 5678 5676 5673 5670 5669 5667
5713 5713 5707 5705 5702 5702 5700 5699 5700 5698 5697 5699 5701 5704 5706 5705 5701 5695 5692 5691 5689 5688 5686 5684 5682 5679 5676 5673 5671 5668 5665 5662 5661
5710 5706 5703 5702 5698 5696 5695 5695 5696 5697 5695 5694 5698 5703 5703 5702 5699 5692 5689 5688 5687 5685 5683 5680 5677 5675 5672 5669 5667 5664 5661 5658 5656
5704 5702 5699 5696 5694 5693 5692 5691 5695 5699 5699 5696 5700 5701 5700 5698 5695 5688 5686 5685 5682 5680 5677 5676 5673 5671 5667 5665 5663 5660 5656 5654 5651
5701 5698 5697 5696 5694 5693 5693 5693 5696 5697 5697 5696 5696 5696 5696 5696 5693 5685 5683 5681 5679 5676 5674 5671 5668 5666 5664 5660 5658 5654 5652 5649 5646
5697 5694 5692 5694 5697 5695 5694 5695 5692 5694 5695 5695 5692 5691 5691 5690 5689 5685 5681 5678 5675 5673 5670 5667 5665 5662 5659 5656 5652 5651 5646 5643 5640
5694 5690 5690 5692 5694 5692 5691 5691 5690 5689 5691 5691 5690 5687 5686 5686 5685 5684 5678 5675 5673 5670 5667 5664 5661 5658 5654 5653 5649 5646 5643 5640 5636
5695 5693 5693 5689 5687 5686 5686 5687 5687 5687 5687 5688 5687 5686 5685 5683 5681 5680 5678 5673 5668 5666 5664 5662 5657 5654 5650 5647 5645 5643 5642 5637 5633
5691 5689 5688 5684 5683 5682 5681 5682 5682 5683 5682 5684 5682 5681 5681 5681 5679 5676 5674 5672 5669 5664 5661 5658 5654 5650 5646 5643 5640 5639 5637 5634 5631
5685 5683 5683 5680 5678 5678 5677 5677 5679 5677 5676 5675 5678 5678 5678 5676 5675 5673 5670 5668 5664 5663 5660 5655 5651 5647 5643 5641 5638 5635 5634 5630 5627
5682 5679 5677 5675 5675 5673 5673 5672 5673 5674 5673 5672 5674 5675 5675 5673 5672 5670 5667 5665 5660 5657 5657 5653 5649 5644 5641 5638 5635 5632 5630 5629 5625
5679 5677 5676 5672 5672 5672 5671 5670 5667 5667 5669 5670 5671 5671 5672 5669 5667 5665 5663 5661 5657 5654 5651 5649 5646 5639 5637 5636 5633 5628 5624 5620 5617
5679 5677 5675 5670 5670 5669 5668 5667 5665 5666 5667 5663 5664 5661 5661 5662 5661 5657 5654 5652 5648 5647 5645 5640 5640 5636 5629 5626 5625 5622 5620 5617 5614
5677 5673 5671 5668 5668 5665 5664 5662 5662 5659 5660 5658 5655 5652 5650 5656 5654 5650 5647 5643 5643 5639 5638 5635 5632 5628 5624 5622 5619 5615 5610 5606 5604
5670 5667 5665 5663 5660 5658 5657 5657 5657 5653 5648 5647 5648 5647 5647 5644 5645 5646 5643 5641 5638 5635 5631 5629 5628 5624 5620 5615 5611 5608 5604 5598 5595
5662 5658 5658 5654 5653 5653 5651 5648 5643 5641 5641 5643 5643 5640 5641 5643 5638 5638 5634 5633 5631 5628 5624 5621 5618 5615 5609 5608 5605 5600 5598 5592 5587